Tracking 27420 objects as of 28-May-2023
HD Live streaming from Space Station
objects crossing your sky now

STARLINK-6038

Track STARLINK-6038 now!
10-day predictions
STARLINK-6038 is classified as:


NORAD ID: 56317
Int'l Code: 2023-058A
Perigee: 465.5 km
Apogee: 467.7 km
Inclination: 97.7 °
Period: 93.8 minutes
Semi major axis: 6837 km
RCS: Unknown
Launch date: April 27, 2023
Source: United States (US)
Launch site: AIR FORCE WESTERN TEST RANGE (AFWTR)
Your satellite tracking list
Your tracking list is empty




NASA's NSSDC Master Catalog

Two Line Element Set (TLE):
1 56317U 23058A   23148.25001157 -.00862757  00000-0 -27160-1 0  9993
2 56317  97.6554 149.0746 0001663  93.7988  19.6109 15.35489768  1307
Source of the keplerian elements: AFSPC